Погода в Ульяновском

Россия / Чеченская Республика     43°37′48″N   45°36′09″E
В апреле 2022 года жителям России запретили посещать сайт meteo.paraplan.net по решению Генеральной прокуратуры. Аудитория сайта уменьшилась в 10 раз. Владельцы сайта не видят смысла в поддержке погодного сервера в таких условиях. Сайт будет закрыт в октябре.
темп.,
°C
ветер,
м/с
пор.,
м/с
влажн.,
%
обл.,
%
осадки,
мм/ч
давл.,
гПа
погр.,
м
29 сентября, чт
чт2900:00+20зсз237635 0.0 100951
03:00+18з227020 0.0 100927
06:00+18зсз347276 0.0 101057
09:00+23зсз4551100 0.0 1012525
12:00+27ссз33415 0.0 10121670
15:00+28всв333599 0.0 10112276
18:00+26ссв2339100 0.0 101357
21:00+24в3641100 0.1 1015300
30 сентября, пт
пт3000:00+23в244996 0.0 1015218
03:00+20вюв34552 0.0 101688
06:00+19вюв22600 0.0 101728
09:00+24в35430 0.0 1018565
12:00+28в56320 0.0 10171652
15:00+30в56260 0.0 10162155
18:00+25вюв610340 0.0 1018386
21:00+21вюв48502 0.0 1019227
1 октября, сб
сб100:00+19в23585 0.0 101961
03:00+18всв226385 0.0 101928
06:00+17ссв11664 0.0 102011
09:00+22сз23455 0.0 1021429
12:00+27с44255 0.0 10201076
15:00+29ссв44220 0.0 10191450
18:00+25св33305 0.0 101948
21:00+21св22475 0.0 101920
2 октября, вс
вс200:00+20всв11505 0.0 101811
03:00+19в11535 0.0 101811
06:00+18ссз00533 0.0 101711
09:00+23в223777 0.0 1016363
12:00+28всв442625 0.0 10131124
15:00+30в672498 0.0 10101745
18:00+24в6943100 0.0 1010431
21:00+20в5106599 0.0 1008389
3 октября, пн
пн300:00+18в5971100 0.0 1006316
03:00+18вюв5972100 0.0 1005270
06:00+17вюв4878100 0.0 1005214
09:00+22вюв5656100 0.0 1005497
12:00+27в6638100 0.0 1005987
15:00+26в7641100 0.0 10061042
18:00+21в696246 0.0 1008380
21:00+18в357263 0.0 1010194